Tiempo atmosférico en la estación meteorológica de Cabo Peñas, Asturias (100 m.)



Fecha
DESCASC
Temp. máxima en grados centígrados (hora)
DESCASC
Temp. mínima en grados centígrados (hora)
DESCASC
Temp. media en grados centígrados
DESCASC
Racha de viento máxima en m/sg (hora)
DESCASC
Velocidad máxima media en intervalos de 10 minutos(hora)
DESCASC
Precipitaciones diarias en mm
DESCASC
Precipitaciones de 00:00 a 06:00 en mm
DESCASC
Precipitaciones de 06:00 a 12:00 en mm
DESCASC
Precipitaciones de 12:00 a 18:00 en mm
DESCASC
Precipitaciones de 18:00 a 24:00 en mm
DESCASC
23-05-2018 -- (--) -- (--) -- 7.78 (16:10) 5 (17:50) 0 0 0 0 0
22-05-2018 20.7 (21:30) 11.3 (02:50) 16 6.67 (16:30) 3.33 (17:30) 0 0 0 0 0
21-05-2018 20.5 (01:10) 11.8 (06:00) 16.2 8.89 (00:40) 6.39 (00:10) 0 0 0 0 0
20-05-2018 20.6 (22:30) 10.6 (00:00) 15.6 8.89 (23:59) 5.56 (23:50) 0 0 0 0 0
19-05-2018 19.4 (17:40) 11.6 (00:00) 15.5 8.89 (01:00) 6.11 (02:30) 0 0 0 0 0
18-05-2018 -- (--) -- (--) -- 9.72 (23:20) 5.83 (23:10) 0 0 0 0 0
17-05-2018 17.7 (15:00) 8.4 (00:00) 13.1 6.39 (15:20) 4.72 (23:00) 0 0 0 0 0
16-05-2018 15 (13:50) 9.5 (00:00) 12.3 8.06 (20:20) 5.28 (19:10) 0.1 0.1 0 0 0
15-05-2018 14.9 (15:30) 6.3 (00:00) 10.6 5.28 (20:00) 3.06 (07:40) 0.1 0 0 0 0.1
14-05-2018 14.8 (12:30) 7.1 (00:00) 11 18.33 (04:20) 10.28 (04:20) 13.7 13.2 0.5 0 0
13-05-2018 -- (--) -- (--) -- 16.39 (18:10) 9.17 (17:20) 5.7 0.7 0.3 2.1 2.6
12-05-2018 -- (--) -- (--) -- 20.28 (11:00) 10.83 (11:00) 2 1.9 0.1 0 0
11-05-2018 -- (--) -- (--) -- 13.33 (00:10) 8.89 (00:50) 3.1 0 0 0 3.1
10-05-2018 -- (--) -- (--) -- 15.83 (17:50) 10 (22:50) 1.7 1.7 0 0 0
09-05-2018 -- (--) -- (--) -- 9.17 (21:30) 5.28 (23:10) 0.4 0 0.4 0 0
08-05-2018 -- (--) -- (--) -- 11.39 (14:10) 7.22 (13:50) 0 0 0 0 0
07-05-2018 -- (--) -- (--) -- 5.56 (23:50) 3.06 (23:40) 0 0 0 0 0
06-05-2018 16 (16:30) 9.9 (00:00) 12.9 8.61 (00:50) 6.11 (00:50) 0 0 0 0 0
05-05-2018 13.7 (14:30) 8.6 (00:00) 11.2 9.17 (22:50) 5.83 (22:30) 0 0 0 0 0
04-05-2018 12.6 (13:00) 7.7 (00:00) 10.2 8.89 (18:00) 5.56 (20:20) 0 0 0 0 0
03-05-2018 13.6 (15:50) 7.9 (00:00) 10.8 6.94 (01:00) 2.78 (07:10) 0.4 0.4 0 0 0
02-05-2018 13.6 (15:20) 8.2 (00:00) 10.9 12.78 (19:00) 6.67 (16:40) 2.5 0 0.4 0.5 1.6
01-05-2018 12.9 (16:30) 4.1 (06:20) 8.5 7.5 (19:10) 5 (03:20) 0 0 0 0 0
30-04-2018 12.9 (16:00) 4.8 (00:00) 8.8 13.33 (09:20) 8.06 (09:30) 8.5 2.2 2.1 4.2 0
29-04-2018 13 (14:30) 4.4 (00:00) 8.7 12.22 (21:10) 6.94 (21:10) 6.3 0 0 3.5 2.8
28-04-2018 11.3 (13:50) 6.5 (00:00) 8.9 8.89 (17:10) 4.44 (19:20) 0.3 0 0.1 0.2 0
27-04-2018 11.9 (12:20) 8.4 (00:00) 10.1 17.22 (10:40) 9.17 (14:50) 0 0 0 0 0
26-04-2018 14.4 (15:40) 8.5 (00:00) 11.4 9.72 (18:40) 6.39 (18:40) 0 0 0 0 0
25-04-2018 13.7 (12:40) 9.7 (00:00) 11.7 8.89 (14:00) 5.28 (13:30) 0 0 0 0 0
24-04-2018 13.9 (12:20) 10.1 (00:00) 12 10.56 (08:30) 5.83 (08:20) 0 0 0 0 0

Gráficas

Temp. máximas Temp. mínimas Temp. medias Precipitaciones Rachas de viento máximas Velocidades máximas media en intervalos de 10 minutos

Datos horarios

Fecha y hora oficial Temperatura (ºC) Velocidad del viento (km/h) Dirección del viento Racha (km/h) Dirección de racha Precipitación (mm) Presión (hPa) Tendencia (hPa) Humedad (%)
2018-05-23 23:00:00 16 10 Este 26 Este 0 -- -- 93
2018-05-23 22:00:00 17.9 14 Este 20 Este 0 -- -- 93
2018-05-23 21:00:00 21 14 Este 24 Este 0 -- -- 92
2018-05-23 20:00:00 17.6 16 Este 27 Este 0 -- -- 91
2018-05-23 19:00:00 17.5 16 Este 27 Este 0 -- -- 91
2018-05-23 18:00:00 19 17 Este 28 Este 0 -- -- 91
2018-05-23 17:00:00 16.3 15 Este 28 Este 0 -- -- 91
2018-05-23 16:00:00 17.3 14 Este 26 Sudeste 0 -- -- 90
2018-05-23 15:00:00 18 12 Sudeste 22 Sudeste 0 -- -- 90
2018-05-23 14:00:00 17.3 5 Este 18 Nordeste 0 -- -- 90
2018-05-23 13:00:00 16.4 8 Este 17 Este 0 -- -- 87
2018-05-23 12:00:00 16.7 10 Este 19 Este 0 -- -- 86
2018-05-23 11:00:00 17.3 15 Este 24 Sudeste 0 -- -- 83
2018-05-23 10:00:00 16.1 14 Este 20 Sudeste 0 -- -- 87
2018-05-23 09:00:00 15.5 13 Este 24 Este 0 -- -- 91
2018-05-23 08:00:00 16.4 14 Este 23 Este 0 -- -- 93
2018-05-23 07:00:00 -- 10 Este 20 Este 0 -- -- 93
2018-05-23 06:00:00 15.8 9 Este 19 Este 0 -- -- 94
2018-05-23 05:00:00 15.8 8 Este 15 Este 0 -- -- 93
2018-05-23 04:00:00 19.7 7 Este 16 Este 0 -- -- 94
2018-05-23 03:00:00 14.9 10 Este 15 Este 0 -- -- 93
2018-05-23 02:00:00 13.5 8 Este 21 Sudeste 0 -- -- 94
2018-05-23 01:00:00 15.7 15 Este 21 Sudeste 0 -- -- 93
2018-05-23 00:00:00 16.4 11 Este 22 Este 0 -- -- 93
2018-05-22 23:00:00 15.1 5 Sudeste 22 Este 0 -- -- 93
2018-05-22 22:00:00 16.3 7 Este 17 Este 0 -- -- 93
2018-05-22 21:00:00 17.7 8 Este 15 Sudeste 0 -- -- 92
2018-05-22 20:00:00 17 9 Sudeste 19 Este 0 -- -- 92
2018-05-22 19:00:00 15.2 9 Este 16 Este 0 -- -- 92
2018-05-22 18:00:00 17.4 9 Este 18 Este 0 -- -- 90
2018-05-22 17:00:00 18.3 9 Este 24 Nordeste 0 -- -- 90
2018-05-22 16:00:00 17.9 5 Este 17 Este 0 -- -- 90
2018-05-22 15:00:00 17 6 Este 15 Sudeste 0 -- -- 90
2018-05-22 14:00:00 16.7 7 Sudeste 17 Sudeste 0 -- -- 90
2018-05-22 13:00:00 16.5 4 Nordeste 8 Nordeste 0 -- -- 90
2018-05-22 12:00:00 16.6 4 Nordeste 9 Este 0 -- -- 90
2018-05-22 11:00:00 15.9 4 Nordeste 12 Este 0 -- -- 91
2018-05-22 10:00:00 15.9 6 Este 12 Este 0 -- -- 92
2018-05-22 09:00:00 15.3 3 Nordeste 7 Sudeste 0 -- -- 92
2018-05-22 08:00:00 13 6 Sudeste 8 Sudeste 0 -- -- 94
2018-05-22 07:00:00 16 6 Este 8 Este 0 -- -- 93
2018-05-22 06:00:00 14.3 4 Este 9 Sudeste 0 -- -- 93
2018-05-22 05:00:00 14.4 7 Sudeste 10 Sudeste 0 -- -- 94
2018-05-22 04:00:00 12.7 5 Este 6 Este 0 -- -- 92
2018-05-22 03:00:00 15.1 2 Este 4 Este 0 -- -- 92
2018-05-22 02:00:00 16 0 Calma 2 Oeste 0 -- -- 92
2018-05-22 01:00:00 15 0 Calma 4 Norte 0 -- -- 91
2018-05-22 00:00:00 15.4 0 Calma 3 Nordeste 0 -- -- 91
2018-05-21 23:00:00 15.6 3 Este 8 Sudeste 0 -- -- 91
2018-05-21 22:00:00 14.3 5 Este 12 Este 0 -- -- 91
2018-05-21 21:00:00 14.5 8 Este 14 Este 0 -- -- 90
2018-05-21 20:00:00 16.4 10 Este 17 Este 0 -- -- 90
2018-05-21 19:00:00 16.1 9 Este 19 Sudeste 0 -- -- 87
2018-05-21 18:00:00 16 12 Este 17 Este 0 -- -- 86
2018-05-21 17:00:00 16.2 7 Este 16 Sudeste 0 -- -- 86
2018-05-21 16:00:00 16.3 10 Este 17 Sudeste 0 -- -- 86
2018-05-21 15:00:00 15.7 8 Este 15 Este 0 -- -- 86
2018-05-21 14:00:00 16 6 Este 18 Sudeste 0 -- -- 86
2018-05-21 13:00:00 15.7 3 Este 15 Este 0 -- -- 86
2018-05-21 12:00:00 15.7 4 Este 11 Este 0 -- -- 86
2018-05-21 11:00:00 15.6 3 Nordeste 10 Este 0 -- -- 87
2018-05-21 10:00:00 15.6 7 Este 10 Este 0 -- -- 90
2018-05-21 09:00:00 15.1 7 Este 11 Este 0 -- -- 92
2018-05-21 08:00:00 14.4 6 Sudeste 14 Sudeste 0 -- -- 93
2018-05-21 07:00:00 15.7 9 Sudeste 19 Este 0 -- -- 93
2018-05-21 06:00:00 14.9 13 Sudeste 21 Sudeste 0 -- -- 93
2018-05-21 05:00:00 14.7 12 Este 25 Este 0 -- -- 93
2018-05-21 04:00:00 16.1 17 Este 31 Este 0 -- -- 93
2018-05-21 03:00:00 16.4 20 Este 31 Este 0 -- -- 93
2018-05-21 02:00:00 16.5 19 Este 31 Este 0 -- -- 93
2018-05-21 01:00:00 14.5 22 Este 32 Este 0 -- -- 93
2018-05-21 00:00:00 16.5 20 Este 32 Este 0 -- -- 94
2018-05-20 23:00:00 19.1 18 Este 31 Este 0 -- -- 94
2018-05-20 22:00:00 13.9 18 Este 27 Este 0 -- -- 92
2018-05-20 21:00:00 20.1 15 Este 28 Este 0 -- -- 92
2018-05-20 20:00:00 14.6 15 Este 31 Este 0 -- -- 92
2018-05-20 19:00:00 16.5 15 Este 29 Este 0 -- -- 91
2018-05-20 18:00:00 16.2 17 Este 26 Este 0 -- -- 90
2018-05-20 17:00:00 16.4 18 Sudeste 28 Este 0 -- -- 88
2018-05-20 16:00:00 16.2 17 Sudeste 29 Este 0 -- -- 88
2018-05-20 15:00:00 15.7 15 Este 30 Este 0 -- -- 87
2018-05-20 14:00:00 15.8 16 Este 27 Este 0 -- -- 86
2018-05-20 13:00:00 16.8 17 Este 25 Este 0 -- -- 86
2018-05-20 12:00:00 16.9 14 Este 21 Este 0 -- -- 86
2018-05-20 11:00:00 16.5 11 Este 18 Este 0 -- -- 86
2018-05-20 10:00:00 16.3 10 Este 14 Este 0 -- -- 87
2018-05-20 09:00:00 13.2 9 Este 14 Este 0 -- -- 90
2018-05-20 08:00:00 15.4 10 Sudeste 15 Sudeste 0 -- -- 91
2018-05-20 07:00:00 13.5 8 Sudeste 17 Sudeste 0 -- -- 91
2018-05-20 06:00:00 12.9 11 Este 26 Este 0 -- -- 91
2018-05-20 05:00:00 15.7 17 Este 26 Este 0 -- -- 91
2018-05-20 04:00:00 15.7 14 Este 24 Este 0 -- -- 91
2018-05-20 03:00:00 12.5 12 Este 22 Este 0 -- -- 92
2018-05-20 02:00:00 14.9 16 Este 25 Este 0 -- -- 92
2018-05-20 01:00:00 15.4 13 Este 23 Este 0 -- -- 92
2018-05-20 00:00:00 16.5 14 Este 24 Este 0 -- -- 92
2018-05-19 23:00:00 15.6 15 Este 24 Este 0 -- -- 92
2018-05-19 22:00:00 14.2 15 Este 26 Sudeste 0 -- -- 91
2018-05-19 21:00:00 15.9 12 Este 23 Este 0 -- -- 90
2018-05-19 20:00:00 16.6 11 Este 19 Sudeste 0 -- -- 91
2018-05-19 19:00:00 16.5 14 Este 25 Este 0 -- -- 91
2018-05-19 18:00:00 17.5 17 Sudeste 26 Sudeste 0 -- -- 90
2018-05-19 17:00:00 17.2 15 Este 24 Este 0 -- -- 90
2018-05-19 16:00:00 16.2 15 Este 23 Este 0 -- -- 88
2018-05-19 15:00:00 17.1 14 Este 22 Este 0 -- -- 87
2018-05-19 14:00:00 15.9 11 Este 21 Nordeste 0 -- -- 87
2018-05-19 13:00:00 16.2 12 Sudeste 20 Este 0 -- -- 86
2018-05-19 12:00:00 16 14 Este 19 Este 0 -- -- 86
2018-05-19 11:00:00 16.7 13 Este 20 Este 0 -- -- 86
2018-05-19 10:00:00 15.9 12 Este 19 Este 0 -- -- 87
2018-05-19 09:00:00 15.3 13 Este 21 Este 0 -- -- 90
2018-05-19 08:00:00 13.4 14 Este 23 Este 0 -- -- 91
2018-05-19 07:00:00 14.1 13 Este 25 Este 0 -- -- 91
2018-05-19 06:00:00 14.5 14 Este 27 Este 0 -- -- 91
2018-05-19 05:00:00 14.6 17 Este 25 Este 0 -- -- 92
2018-05-19 04:00:00 17.6 17 Este 27 Sudeste 0 -- -- 92
2018-05-19 03:00:00 13 18 Este 31 Nordeste 0 -- -- 92
2018-05-19 02:00:00 15.9 19 Este 31 Este 0 -- -- 92
2018-05-19 01:00:00 15.7 20 Este 32 Este 0 -- -- 93
2018-05-19 00:00:00 15.3 18 Este 35 Este 0 -- -- 93
2018-05-18 23:00:00 17.4 20 Este 33 Este 0 -- -- 92
2018-05-18 22:00:00 14.2 18 Este 29 Este 0 -- -- 92
2018-05-18 21:00:00 18.9 18 Este 33 Este 0 -- -- 92
2018-05-18 20:00:00 17.5 17 Este 29 Este 0 -- -- 91
2018-05-18 19:00:00 17 16 Este 28 Este 0 -- -- 91
2018-05-18 18:00:00 15.8 16 Este 24 Este 0 -- -- 91
2018-05-18 17:00:00 15.9 16 Este 27 Este 0 -- -- 91
2018-05-18 16:00:00 16.7 15 Este 24 Este 0 -- -- 91
2018-05-18 15:00:00 15.3 13 Este 22 Sudeste 0 -- -- 88
2018-05-18 14:00:00 15.5 12 Sudeste 20 Sudeste 0 -- -- 88
2018-05-18 13:00:00 15.4 8 Este 14 Este 0 -- -- 88
2018-05-18 12:00:00 17 4 Este 9 Sudeste 0 -- -- 90
2018-05-18 11:00:00 15.6 3 Nordeste 5 Nordeste 0 -- -- 90
2018-05-18 10:00:00 16.3 0 Calma 3 Nordeste 0 -- -- 90
2018-05-18 09:00:00 13.8 0 Calma 8 Sudeste 0 -- -- 91
2018-05-18 08:00:00 14.1 0 Calma 8 Sudeste 0 -- -- 91
2018-05-18 07:00:00 12.5 5 Sudeste 13 Este 0 -- -- 91
2018-05-18 06:00:00 13.8 9 Este 20 Este 0 -- -- 90
2018-05-18 05:00:00 14.7 8 Este 24 Este 0 -- -- 90
2018-05-18 04:00:00 14 13 Sudeste 28 Este 0 -- -- 90
2018-05-18 03:00:00 14.9 15 Este 27 Este 0 -- -- 90
2018-05-18 02:00:00 9.5 15 Este 30 Este 0 -- -- 90
2018-05-18 01:00:00 13.3 15 Este 23 Este 0 -- -- 91
2018-05-18 00:00:00 13.8 13 Este 23 Este 0 -- -- 91
2018-05-17 23:00:00 15.3 17 Este 22 Este 0 -- -- 91
2018-05-17 22:00:00 13.1 12 Este 19 Este 0 -- -- 91
2018-05-17 21:00:00 -- 8 Este 15 Nordeste 0 -- -- 90
2018-05-17 20:00:00 13.7 4 Este 17 Este 0 -- -- 88
2018-05-17 19:00:00 14.6 6 Este 16 Sudeste 0 -- -- 88
2018-05-17 18:00:00 15.5 8 Este 17 Sudeste 0 -- -- 87
2018-05-17 17:00:00 14.7 6 Este 19 Nordeste 0 -- -- 87
2018-05-17 16:00:00 13.8 7 Este 23 Nordeste 0 -- -- 87
2018-05-17 15:00:00 15 6 Este 21 Este 0 -- -- 87
2018-05-17 14:00:00 13.4 7 Este 20 Este 0 -- -- 86
2018-05-17 13:00:00 14.9 9 Sudeste 21 Este 0 -- -- 86
2018-05-17 12:00:00 13.3 5 Este 18 Sur 0 -- -- 86
2018-05-17 11:00:00 13.7 11 Este 16 Este 0 -- -- 87
2018-05-17 10:00:00 14.5 10 Este 16 Este 0 -- -- 87
2018-05-17 09:00:00 13.1 8 Este 15 Este 0 -- -- 88
2018-05-17 08:00:00 10.7 8 Este 15 Este 0 -- -- 89
2018-05-17 07:00:00 13.4 6 Este 15 Este 0 -- -- 90
2018-05-17 06:00:00 12.9 9 Este 15 Este 0 -- -- 90
2018-05-17 05:00:00 13.2 9 Este 17 Este 0 -- -- 90
2018-05-17 04:00:00 11.9 11 Este 21 Este 0 -- -- 90
2018-05-17 03:00:00 11.1 12 Este 21 Este 0 -- -- 90
2018-05-17 02:00:00 11.6 13 Este 22 Este 0 -- -- 90
2018-05-17 01:00:00 10.8 15 Este 22 Este 0 -- -- 90
2018-05-17 00:00:00 10.7 15 Este 24 Este 0 -- -- 90
2018-05-16 23:00:00 11 14 Este 25 Este 0 -- -- 89
2018-05-16 22:00:00 11 13 Este 27 Sudeste 0 -- -- 89
2018-05-16 21:00:00 11.6 17 Sudeste 29 Este 0 -- -- 88
2018-05-16 20:00:00 11.7 18 Este 28 Este 0 -- -- 87
2018-05-16 19:00:00 11.7 18 Sudeste 28 Este 0 -- -- 87
2018-05-16 18:00:00 13.1 15 Este 24 Sudeste 0 -- -- 87
2018-05-16 17:00:00 12.5 10 Este 23 Nordeste 0 -- -- 87
2018-05-16 16:00:00 12.9 6 Este 22 Este 0 -- -- 84
2018-05-16 15:00:00 12.9 4 Este 16 Este 0 -- -- 86
2018-05-16 14:00:00 13.9 3 Sudeste 12 Sudeste 0 -- -- 84
2018-05-16 13:00:00 12.8 0 Calma 8 Noroeste 0 -- -- 86
2018-05-16 12:00:00 11.3 4 Nordeste 10 Sur 0 -- -- 91
2018-05-16 11:00:00 10.8 4 Sur 13 Noroeste 0 -- -- 91
2018-05-16 10:00:00 10.6 3 Noroeste 10 Norte 0 -- -- 91
2018-05-16 09:00:00 11.3 3 Noroeste 9 Noroeste 0 -- -- 91
2018-05-16 08:00:00 10.6 0 Calma 6 Sudoeste 0 -- -- 91
2018-05-16 07:00:00 10.6 0 Calma 12 Sudeste 0 -- -- 88
2018-05-16 06:00:00 11.1 5 Sudeste 14 Sudeste 0.1 -- -- 86
2018-05-16 05:00:00 11.7 3 Este 14 Sudeste 0 -- -- 83
2018-05-16 04:00:00 10.3 2 Sur 12 Sudeste 0 -- -- 90
2018-05-16 03:00:00 11 3 Sur 13 Sudeste 0 -- -- 91
2018-05-16 02:00:00 10.5 3 Sur 16 Sudeste 0 -- -- 91
2018-05-16 01:00:00 10.3 3 Sur 11 Sudeste 0 -- -- 91
2018-05-16 00:00:00 11 3 Sudeste 17 Sudeste 0 -- -- 91
2018-05-15 23:00:00 12 3 Sudeste 15 Sudeste 0.1 -- -- 91
2018-05-15 22:00:00 11 3 Nordeste 12 Sudeste 0 -- -- 91
2018-05-15 21:00:00 12.5 3 Sur 9 Sudeste 0 -- -- 91
2018-05-15 20:00:00 12.9 0 Calma 19 Oeste 0 -- -- 91
2018-05-15 19:00:00 13.6 0 Calma 19 Noroeste 0 -- -- 88
2018-05-15 18:00:00 13.8 2 Sur 15 Noroeste 0 -- -- 82
2018-05-15 17:00:00 13.8 0 Calma 15 Noroeste 0 -- -- 79
2018-05-15 16:00:00 13.8 0 Calma 12 Sudoeste 0 -- -- 75
2018-05-15 15:00:00 14.3 2 Sur 11 Nordeste 0 -- -- 74
2018-05-15 14:00:00 14.5 4 Sudeste 13 Este 0 -- -- 73
2018-05-15 13:00:00 13.3 3 Este 14 Sudeste 0 -- -- 69
2018-05-15 12:00:00 13.7 7 Sudeste 17 Este 0 -- -- 72
2018-05-15 11:00:00 12.4 0 Calma 12 Sudeste 0 -- -- 76
2018-05-15 10:00:00 10.4 7 Sudoeste 15 Sudoeste 0 -- -- 86
2018-05-15 09:00:00 8.4 9 Sudoeste 15 Sudoeste 0 -- -- 88
2018-05-15 08:00:00 8.2 9 Sudoeste 14 Sudoeste 0 -- -- 90
2018-05-15 07:00:00 7.9 10 Sur 13 Sur 0 -- -- 88
2018-05-15 06:00:00 7.8 11 Sudoeste 12 Sudoeste 0 -- -- 88
2018-05-15 05:00:00 8.2 8 Sudoeste 10 Sudoeste 0 -- -- 88
2018-05-15 04:00:00 8.2 6 Sudoeste 9 Sudoeste 0 -- -- 90
2018-05-15 03:00:00 9 6 Sudoeste 9 Sudoeste 0 -- -- 84
2018-05-15 02:00:00 9 6 Sudoeste 7 Sudoeste 0 -- -- 84
2018-05-15 01:00:00 9.4 0 Calma 2 Nordeste 0 -- -- 84
2018-05-15 00:00:00 9.5 0 Calma 3 Sudoeste 0 -- -- 84
2018-05-14 23:00:00 9.6 0 Calma 8 Sudeste 0 -- -- 84
2018-05-14 22:00:00 9.9 3 Sudeste 7 Sudeste 0 -- -- 84
2018-05-14 21:00:00 11.2 3 Sur 12 Sudeste 0 -- -- 82
2018-05-14 20:00:00 11.8 4 Sudeste 11 Sudeste 0 -- -- 81
2018-05-14 19:00:00 12.2 3 Sudeste 16 Este 0 -- -- 79
2018-05-14 18:00:00 11.8 4 Nordeste 15 Sudeste 0 -- -- 79
2018-05-14 17:00:00 12.1 4 Este 16 Este 0 -- -- 76
2018-05-14 16:00:00 12.4 10 Este 18 Este 0 -- -- 79
2018-05-14 15:00:00 12.7 6 Este 18 Nordeste 0 -- -- 79
2018-05-14 14:00:00 12.5 3 Este 15 Sudeste 0 -- -- 81
2018-05-14 13:00:00 11.8 9 Este 15 Este 0 -- -- 82
2018-05-14 12:00:00 11.5 8 Sudeste 22 Sudeste 0 -- -- 83
2018-05-14 11:00:00 11.5 7 Sudeste 24 Este 0 -- -- 86
2018-05-14 10:00:00 10.2 10 Sudeste 28 Este 0 -- -- 90
2018-05-14 09:00:00 9.2 9 Este 25 Norte 0.1 -- -- 93
2018-05-14 08:00:00 9.8 4 Sudeste 21 Nordeste 0 -- -- 93
2018-05-14 07:00:00 10 9 Noroeste 37 Norte 0.4 -- -- 93
2018-05-14 06:00:00 9.3 16 Norte 47 Noroeste 1.1 -- -- 94
2018-05-14 05:00:00 10.6 36 Noroeste 66 Oeste 3.1 -- -- 95
2018-05-14 04:00:00 9.5 33 Oeste 59 Oeste 3.2 -- -- 93
2018-05-14 03:00:00 8.9 18 Sudoeste 24 Sudoeste 2.6 -- -- 93
2018-05-14 02:00:00 9 12 Sudoeste 19 Sur 2 -- -- 93
2018-05-14 01:00:00 8.5 14 Sudoeste 22 Oeste 1.2 -- -- 92
2018-05-11 20:00:00 11.2 11 Noroeste 24 Noroeste 0 -- -- 91
2018-05-11 19:00:00 12.4 0 Calma 14 Este 0 -- -- 83
2018-05-11 18:00:00 13.8 8 Este 14 Sudeste 0 -- -- 84
2018-05-11 17:00:00 -- 10 Este 14 Este 0 -- -- 84
2018-05-11 16:00:00 -- 2 Sudoeste 14 Noroeste 0 -- -- 79
2018-05-11 15:00:00 13.1 5 Noroeste 16 Oeste 0 -- -- 82
2018-05-11 14:00:00 13.6 6 Noroeste 14 Noroeste 0 -- -- 83
2018-05-11 13:00:00 13.1 10 Oeste 19 Oeste 0 -- -- 84
2018-05-11 12:00:00 13 5 Noroeste 15 Oeste 0 -- -- 86
2018-05-11 11:00:00 10.3 6 Noroeste 26 Noroeste 0 -- -- 88
2018-05-11 10:00:00 12 10 Noroeste 42 Noroeste 0 -- -- 88
2018-05-11 09:00:00 11.8 19 Noroeste 37 Oeste 0 -- -- 89
2018-05-11 08:00:00 9.5 22 Oeste 30 Oeste 0 -- -- 90
2018-05-11 07:00:00 8.8 11 Oeste 17 Oeste 0 -- -- 88
2018-05-11 06:00:00 9.5 12 Sudeste 22 Sudeste 0 -- -- 87
2018-05-11 05:00:00 9.1 14 Sudeste 24 Sudeste 0 -- -- 88
2018-05-11 04:00:00 9.2 20 Sudeste 37 Sudeste 0 -- -- 86
2018-05-11 03:00:00 9.9 29 Este 47 Sudeste 0 -- -- 83
2018-05-11 02:00:00 9.7 26 Este 46 Sudeste 0 -- -- 83
2018-05-11 01:00:00 10 31 Este 48 Este 0 -- -- 84
2018-05-11 00:00:00 11.3 32 Este 52 Este 0 -- -- 83
2018-05-10 23:00:00 10.5 33 Este 55 Este 0 -- -- 82
2018-05-10 22:00:00 10.4 33 Este 51 Este 0 -- -- 82
2018-05-10 21:00:00 9.8 31 Este 46 Este 0 -- -- 81
2018-05-10 20:00:00 10.9 29 Este 49 Este 0 -- -- 76
2018-05-10 19:00:00 11.2 28 Este 50 Este 0 -- -- 73
2018-05-10 18:00:00 11.5 28 Este 57 Este 0 -- -- 72
2018-05-10 17:00:00 11.8 25 Este 42 Este 0 -- -- 72
2018-05-10 16:00:00 11.5 21 Este 34 Este 0 -- -- 69
2018-05-10 15:00:00 11.7 19 Este 28 Sudeste 0 -- -- 70
2018-05-10 14:00:00 12 15 Este 26 Este 0 -- -- 68
2018-05-10 13:00:00 12.5 14 Este 20 Este 0 -- -- 69
2018-05-10 12:00:00 12.3 9 Este 22 Este 0 -- -- 71
2018-05-10 11:00:00 11.3 7 Este 22 Este 0 -- -- 71
2018-05-10 10:00:00 11 6 Sudeste 20 Sudeste 0 -- -- 76
2018-05-10 09:00:00 10.1 5 Sudeste 17 Sudeste 0 -- -- 76
2018-05-10 08:00:00 10.1 4 Sur 15 Sudeste 0 -- -- 81
2018-05-10 07:00:00 9.9 4 Sur 17 Sur 0 -- -- 83
2018-05-10 06:00:00 9.9 5 Sudeste 20 Sudeste 0 -- -- 84
2018-05-10 05:00:00 9.6 4 Sudeste 23 Este 0.1 -- -- 87
2018-05-10 04:00:00 9.9 4 Sudeste 34 Oeste 1.5 -- -- 92
2018-05-10 03:00:00 10.1 19 Oeste 38 Oeste 0.1 -- -- 92
2018-05-10 02:00:00 10.1 19 Oeste 35 Oeste 0 -- -- 90
2018-05-10 01:00:00 10.6 13 Oeste 25 Oeste 0 -- -- 84
2018-05-10 00:00:00 10.3 14 Oeste 29 Oeste 0 -- -- 87
2018-05-09 23:00:00 10.4 18 Oeste 32 Oeste 0 -- -- 84
2018-05-09 22:00:00 11 15 Oeste 33 Oeste 0 -- -- 83
2018-05-09 21:00:00 10.9 14 Oeste 27 Oeste 0 -- -- 82
2018-05-09 20:00:00 9.8 9 Noroeste 26 Sudoeste 0 -- -- 83
2018-05-09 19:00:00 10.7 8 Noroeste 22 Noroeste 0 -- -- 83
2018-05-09 18:00:00 11.1 12 Noroeste 25 Noroeste 0 -- -- 83
2018-05-09 17:00:00 11 14 Noroeste 24 Noroeste 0 -- -- 84
2018-05-09 16:00:00 -- 14 Noroeste 22 Noroeste 0 -- -- 86
2018-05-09 15:00:00 10.9 6 Norte 14 Noroeste 0 -- -- 90
2018-05-09 14:00:00 11.6 3 Sur 11 Nordeste 0 -- -- 92
2018-05-09 13:00:00 12.1 2 Sudeste 16 Sudeste 0 -- -- 92
2018-05-09 12:00:00 10.8 4 Este 17 Nordeste 0 -- -- 94
2018-05-09 11:00:00 10.5 4 Este 18 Sudeste 0.1 -- -- 93
2018-05-09 10:00:00 9.6 4 Este 19 Nordeste 0.1 -- -- 93
2018-05-09 09:00:00 10.6 6 Este 22 Sudeste 0.1 -- -- 94
2018-05-09 08:00:00 10.8 6 Este 20 Sudeste 0.1 -- -- 93
2018-05-09 07:00:00 11 0 Calma 20 Noroeste 0 -- -- 93
2018-05-09 06:00:00 11.2 6 Oeste 14 Oeste 0 -- -- 94
2018-05-09 05:00:00 10.4 9 Oeste 13 Oeste 0 -- -- 92
2018-05-09 04:00:00 11.4 4 Noroeste 8 Noroeste 0 -- -- 91
2018-05-09 03:00:00 11.4 5 Oeste 9 Sudoeste 0 -- -- 91
2018-05-09 02:00:00 11 6 Sudoeste 12 Sudoeste 0 -- -- 91
2018-05-09 01:00:00 10.1 10 Sudoeste 14 Oeste 0 -- -- 91
2018-05-09 00:00:00 11.2 10 Sudoeste 14 Sudoeste 0 -- -- 91
2018-05-08 23:00:00 12.1 6 Oeste 9 Sudoeste 0 -- -- 90
2018-05-08 22:00:00 11.6 6 Oeste 11 Noroeste 0 -- -- 90
2018-05-08 21:00:00 14.2 6 Noroeste 16 Noroeste 0 -- -- 88
2018-05-08 20:00:00 10.4 2 Norte 17 Noroeste 0 -- -- 87
2018-05-08 19:00:00 11.3 12 Noroeste 24 Noroeste 0 -- -- 87
2018-05-08 18:00:00 11.4 8 Noroeste 31 Noroeste 0 -- -- 84
2018-05-08 17:00:00 12 8 Noroeste 28 Oeste 0 -- -- 84
2018-05-08 16:00:00 11.9 10 Oeste 25 Noroeste 0 -- -- 84
2018-05-08 15:00:00 11.9 13 Noroeste 41 Noroeste 0 -- -- 86
2018-05-08 14:00:00 10.6 26 Noroeste 41 Noroeste 0 -- -- 91
2018-05-08 13:00:00 11 19 Noroeste 30 Noroeste 0 -- -- 91
2018-05-08 12:00:00 11.5 10 Noroeste 23 Noroeste 0 -- -- 92
2018-05-08 11:00:00 11.2 15 Noroeste 28 Noroeste 0 -- -- 92
2018-05-08 10:00:00 11 18 Noroeste 38 Noroeste 0 -- -- 92
2018-05-08 09:00:00 11.4 19 Noroeste 33 Noroeste 0 -- -- 93
2018-05-08 08:00:00 11.3 14 Noroeste 27 Noroeste 0 -- -- 93
2018-05-08 07:00:00 11.8 6 Noroeste 21 Oeste 0 -- -- 93
2018-05-08 06:00:00 11.8 10 Oeste 22 Oeste 0 -- -- 92
2018-05-08 05:00:00 11.7 9 Oeste 23 Oeste 0 -- -- 92
2018-05-08 04:00:00 12.4 14 Oeste 23 Oeste 0 -- -- 92
2018-05-08 03:00:00 11.5 12 Oeste 24 Noroeste 0 -- -- 92
2018-05-08 02:00:00 11.7 14 Noroeste 25 Noroeste 0 -- -- 92
2018-05-08 01:00:00 11.7 9 Noroeste 20 Norte 0 -- -- 92
2018-05-08 00:00:00 11.6 10 Oeste 20 Oeste 0 -- -- 92
2018-05-07 23:00:00 11.9 5 Oeste 13 Oeste 0 -- -- 92
2018-05-07 22:00:00 11.1 4 Oeste 9 Sudoeste 0 -- -- 92
2018-05-07 21:00:00 12.1 5 Oeste 14 Noroeste 0 -- -- 92
2018-05-07 20:00:00 -- 9 Oeste 15 Noroeste 0 -- -- 91
2018-05-07 19:00:00 -- 9 Noroeste 16 Noroeste 0 -- -- 91
2018-05-07 18:00:00 -- 3 Noroeste 15 Noroeste 0 -- -- 90
2018-05-07 17:00:00 13.1 8 Noroeste 15 Noroeste 0 -- -- 90
2018-05-07 16:00:00 13.2 5 Noroeste 15 Noroeste 0 -- -- 90
2018-05-07 15:00:00 13 4 Noroeste 16 Norte 0 -- -- 91
2018-05-07 14:00:00 -- 6 Noroeste 15 Noroeste 0 -- -- 91
2018-05-07 13:00:00 -- 6 Noroeste 16 Noroeste 0 -- -- 92
2018-05-07 12:00:00 11.8 6 Oeste 12 Sudoeste 0 -- -- 93
2018-05-07 11:00:00 11.7 6 Oeste 13 Oeste 0 -- -- 93
2018-05-07 10:00:00 10.7 9 Oeste 14 Sudoeste 0 -- -- 93
2018-05-07 09:00:00 10.5 5 Oeste 9 Oeste 0 -- -- 93
2018-05-07 08:00:00 11 0 Calma 4 Oeste 0 -- -- 93
2018-05-07 07:00:00 10.5 0 Calma 5 Este 0 -- -- 93
2018-05-07 06:00:00 11.4 3 Este 8 Este 0 -- -- 93
2018-05-07 05:00:00 11.8 3 Este 7 Este 0 -- -- 93
2018-05-07 04:00:00 11.6 3 Sudeste 10 Sudeste 0 -- -- 93
2018-05-07 03:00:00 12.2 4 Sudeste 7 Sudeste 0 -- -- 93
2018-05-07 02:00:00 12.5 0 Calma 8 Sudeste 0 -- -- 94
2018-05-07 01:00:00 12.6 5 Este 14 Sudeste 0 -- -- 93
2018-05-07 00:00:00 12.8 8 Este 12 Sudeste 0 -- -- 93
2018-05-06 23:00:00 13 8 Este 14 Este 0 -- -- 93
2018-05-06 22:00:00 13.3 5 Este 13 Este 0 -- -- 92
2018-05-06 21:00:00 13.2 7 Este 14 Nordeste 0 -- -- 91
2018-05-06 20:00:00 13.7 5 Nordeste 15 Nordeste 0 -- -- 90
2018-05-06 19:00:00 14.1 3 Nordeste 13 Nordeste 0 -- -- 87
2018-05-06 18:00:00 14.5 7 Este 18 Este 0 -- -- 86
2018-05-06 17:00:00 14.1 10 Este 23 Este 0 -- -- 84
2018-05-06 16:00:00 14.9 14 Este 22 Este 0 -- -- 82
2018-05-06 15:00:00 14.9 14 Este 23 Este 0 -- -- 81
2018-05-06 14:00:00 14.6 13 Este 20 Este 0 -- -- 86
2018-05-06 13:00:00 13.7 9 Este 18 Este 0 -- -- 87
2018-05-06 12:00:00 13.5 12 Este 18 Este 0 -- -- 87
2018-05-06 11:00:00 13.7 13 Sudeste 18 Sudeste 0 -- -- 87
2018-05-06 10:00:00 12.6 12 Este 18 Este 0 -- -- 90
2018-05-06 09:00:00 11.3 10 Sudeste 14 Sudeste 0 -- -- 92
2018-05-06 08:00:00 10.7 8 Este 14 Sudeste 0 -- -- 92
2018-05-06 07:00:00 10.7 7 Este 18 Este 0 -- -- 92
2018-05-06 06:00:00 10.3 12 Este 22 Este 0 -- -- 92
2018-05-06 05:00:00 10.7 13 Este 24 Este 0 -- -- 92
2018-05-06 04:00:00 10.6 15 Este 23 Sudeste 0 -- -- 92
2018-05-06 03:00:00 10.6 18 Sudeste 25 Sudeste 0 -- -- 92
2018-05-06 02:00:00 11.1 18 Este 31 Este 0 -- -- 93
2018-05-06 01:00:00 11.3 20 Este 31 Este 0 -- -- 92
2018-05-06 00:00:00 11.3 21 Este 31 Este 0 -- -- 92
2018-05-05 23:00:00 11.6 20 Este 33 Este 0 -- -- 92
2018-05-05 22:00:00 11.6 18 Este 27 Este 0 -- -- 92
2018-05-05 21:00:00 11.1 16 Este 25 Este 0 -- -- 92
2018-05-05 20:00:00 11.4 17 Este 26 Este 0 -- -- 91
2018-05-05 19:00:00 11.1 15 Este 26 Este 0 -- -- 90
2018-05-05 18:00:00 11.4 16 Este 27 Este 0 -- -- 90
2018-05-05 17:00:00 11.5 17 Este 28 Este 0 -- -- 88
2018-05-05 16:00:00 12.3 16 Este 26 Sudeste 0 -- -- 86
2018-05-05 15:00:00 12 15 Este 24 Este 0 -- -- 83
2018-05-05 14:00:00 13.3 18 Este 26 Este 0 -- -- 83
2018-05-05 13:00:00 12.1 13 Este 21 Este 0 -- -- 84
2018-05-05 12:00:00 12.2 13 Este 18 Este 0 -- -- 84
2018-05-05 11:00:00 11.9 9 Este 14 Este 0 -- -- 84
2018-05-05 10:00:00 12 6 Este 12 Este 0 -- -- 84
2018-05-05 09:00:00 10.9 8 Sudeste 12 Sudeste 0 -- -- 86
2018-05-05 08:00:00 9.5 9 Sudeste 14 Sudeste 0 -- -- 90
2018-05-05 07:00:00 9.2 9 Sudeste 13 Sudeste 0 -- -- 91
2018-05-05 06:00:00 8.8 10 Sudeste 15 Sudeste 0 -- -- 91
2018-05-05 05:00:00 8.9 10 Sudeste 16 Este 0 -- -- 91
2018-05-05 04:00:00 9.7 12 Este 17 Este 0 -- -- 91
2018-05-05 03:00:00 9.1 8 Este 17 Sudeste 0 -- -- 91
2018-05-05 02:00:00 9.2 13 Sudeste 26 Este 0 -- -- 90
2018-05-05 01:00:00 9.8 18 Este 28 Este 0 -- -- 90
2018-05-05 00:00:00 10.2 17 Este 29 Este 0 -- -- 90
2018-05-04 23:00:00 10.3 18 Este 65 Sudeste 0 -- -- 90
2018-05-04 22:00:00 10.2 17 Sudeste 30 Este 0 -- -- 90
2018-05-04 21:00:00 9.9 13 Sudeste 28 Este 0 -- -- 88
2018-05-04 20:00:00 10.2 18 Sudeste 31 Sudeste 0 -- -- 87
2018-05-04 19:00:00 10.9 15 Sudeste 29 Este 0 -- -- 84
2018-05-04 18:00:00 10.5 14 Este 32 Este 0 -- -- 83
2018-05-04 17:00:00 10.4 14 Este 27 Sudeste 0 -- -- 81
2018-05-04 16:00:00 11.6 14 Sudeste 25 Sudeste 0 -- -- 75
2018-05-04 15:00:00 11.5 12 Sudeste 22 Sudeste 0 -- -- 76
2018-05-04 14:00:00 10.3 17 Este 28 Este 0 -- -- 79
2018-05-04 13:00:00 11.9 9 Este 19 Este 0 -- -- 79
2018-05-04 12:00:00 11.3 4 Este 14 Este 0 -- -- 81
2018-05-04 11:00:00 11.5 5 Este 12 Este 0 -- -- 82
2018-05-04 10:00:00 10.9 7 Este 11 Sudeste 0 -- -- 82
2018-05-04 09:00:00 10.4 0 Calma 7 Sudoeste 0 -- -- 83
2018-05-04 08:00:00 8.4 3 Sur 9 Sur 0 -- -- 86
2018-05-04 07:00:00 8.3 4 Sur 7 Sur 0 -- -- 87
2018-05-04 06:00:00 8.5 3 Sur 7 Sur 0 -- -- 87
2018-05-04 05:00:00 8.5 2 Sur 10 Este 0 -- -- 86
2018-05-04 04:00:00 9.3 4 Este 9 Nordeste 0 -- -- 86
2018-05-04 03:00:00 9.1 4 Este 14 Sudeste 0 -- -- 84
2018-05-04 02:00:00 9.4 3 Este 14 Este 0 -- -- 83
2018-05-04 01:00:00 9.3 5 Este 15 Sudeste 0 -- -- 82
2018-05-04 00:00:00 9.5 6 Este 22 Nordeste 0 -- -- 82
2018-05-03 23:00:00 9.5 4 Sur 15 Sudeste 0 -- -- 81
2018-05-03 22:00:00 9.3 5 Este 17 Sudeste 0 -- -- 79
2018-05-03 21:00:00 9.8 4 Este 13 Sudeste 0 -- -- 79
2018-05-03 20:00:00 10.7 4 Este 17 Sudeste 0 -- -- 74
2018-05-03 19:00:00 11.6 6 Este 17 Nordeste 0 -- -- 73
2018-05-03 18:00:00 13.3 3 Sur 13 Sudeste 0 -- -- 73
2018-05-03 17:00:00 13.1 4 Sudeste 15 Sudeste 0 -- -- 76
2018-05-03 16:00:00 13.3 4 Sudeste 14 Sudeste 0 -- -- 75
2018-05-03 15:00:00 12 4 Sudeste 18 Este 0 -- -- 79
2018-05-03 14:00:00 11.4 4 Este 15 Nordeste 0 -- -- 81
2018-05-03 13:00:00 10.6 3 Este 16 Sudeste 0 -- -- 82
2018-05-03 12:00:00 11.1 3 Sudeste 12 Sudeste 0 -- -- 82
2018-05-03 11:00:00 10.2 3 Sur 16 Este 0 -- -- 83
2018-05-03 10:00:00 9.4 3 Sur 17 Sudeste 0 -- -- 81
2018-05-03 09:00:00 10.2 3 Sur 12 Norte 0 -- -- 82
2018-05-03 08:00:00 9.2 0 Calma 19 Noroeste 0 -- -- 84
2018-05-03 07:00:00 9.2 8 Noroeste 17 Noroeste 0 -- -- 82
2018-05-03 06:00:00 8.2 2 Sudeste 12 Sudoeste 0 -- -- 82
2018-05-03 05:00:00 8.6 2 Sur 18 Este 0 -- -- 82
2018-05-03 04:00:00 9 4 Sudeste 17 Este 0 -- -- 83
2018-05-03 03:00:00 8.9 4 Sudeste 22 Norte 0 -- -- 82
2018-05-03 02:00:00 9.1 4 Sur 24 Noroeste 0 -- -- 87
2018-05-03 01:00:00 9.1 3 Sudeste 25 Sur 0.4 -- -- 91
2018-05-03 00:00:00 9.3 6 Sur 22 Sur 0 -- -- 91
2018-05-02 23:00:00 9.5 8 Sur 27 Sudeste 0.1 -- -- 92
2018-05-02 22:00:00 9.5 4 Sur 19 Sudeste 0.1 -- -- 94
2018-05-02 21:00:00 9.6 7 Sudeste 43 Noroeste 0.9 -- -- 94
2018-05-02 20:00:00 11.1 23 Noroeste 42 Noroeste 0.5 -- -- 93
2018-05-02 19:00:00 11.6 15 Noroeste 46 Norte 0 -- -- 91
2018-05-02 18:00:00 12.3 14 Oeste 33 Oeste 0 -- -- 88
2018-05-02 17:00:00 12.4 19 Oeste 39 Oeste 0.1 -- -- 86
2018-05-02 16:00:00 13.5 13 Oeste 25 Sudoeste 0 -- -- 84
2018-05-02 15:00:00 12.4 18 Sudoeste 28 Sudoeste 0 -- -- 88
2018-05-02 14:00:00 11.1 19 Sudoeste 26 Sudoeste 0.1 -- -- 90
2018-05-02 13:00:00 11.2 8 Sudoeste 13 Sudoeste 0.3 -- -- 88
2018-05-02 12:00:00 10.8 5 Sudoeste 11 Sudoeste 0 -- -- 87
2018-05-02 11:00:00 9.8 2 Sudoeste 10 Oeste 0.1 -- -- 87
2018-05-02 10:00:00 9.2 8 Oeste 21 Sudoeste 0.3 -- -- 88
2018-05-02 09:00:00 8.9 10 Sudoeste 20 Sudoeste 0 -- -- 83
2018-05-02 08:00:00 8.3 12 Sudoeste 24 Sudoeste 0 -- -- 81
2018-05-02 07:00:00 9.4 13 Sudoeste 29 Sudoeste 0 -- -- 71
2018-05-02 06:00:00 9.4 19 Sudoeste 27 Sudoeste 0 -- -- 69
2018-05-02 05:00:00 8.7 10 Sudoeste 18 Sudoeste 0 -- -- 79
2018-05-02 04:00:00 8.9 8 Sudoeste 12 Sudoeste 0 -- -- 82
2018-05-02 03:00:00 9 2 Sur 8 Sudeste 0 -- -- 86
2018-05-02 02:00:00 9.1 5 Sudeste 9 Sudeste 0 -- -- 86
2018-05-02 01:00:00 9.1 8 Sudeste 12 Sudeste 0 -- -- 87
2018-05-02 00:00:00 9.1 5 Este 13 Este 0 -- -- 86
2018-05-01 23:00:00 9.3 6 Este 13 Este 0 -- -- 83
2018-05-01 22:00:00 8.9 6 Sudeste 13 Este 0 -- -- 82
2018-05-01 21:00:00 8.6 8 Este 17 Este 0 -- -- 81
2018-05-01 20:00:00 9.2 12 Este 27 Sudeste 0 -- -- 76
2018-05-01 19:00:00 10.7 17 Este 23 Sudeste 0 -- -- 71
2018-05-01 18:00:00 11.1 11 Este 20 Este 0 -- -- 72
2018-05-01 17:00:00 11.2 5 Este 16 Este 0 -- -- 73
2018-05-01 16:00:00 11.1 4 Sudeste 12 Este 0 -- -- 74
2018-05-01 15:00:00 9.8 3 Noroeste 20 Noroeste 0 -- -- 76
2018-05-01 14:00:00 9.5 9 Noroeste 23 Noroeste 0 -- -- 79
2018-05-01 13:00:00 9.4 7 Noroeste 15 Noroeste 0 -- -- 76
2018-05-01 12:00:00 8.5 7 Oeste 17 Oeste 0 -- -- 81
2018-05-01 11:00:00 8.9 11 Oeste 19 Sudoeste 0 -- -- 82
2018-05-01 10:00:00 8.1 13 Sudoeste 23 Sudoeste 0 -- -- 84
2018-05-01 09:00:00 6.8 14 Sudoeste 19 Sudoeste 0 -- -- 86
2018-05-01 08:00:00 5.9 13 Sudoeste 19 Sudoeste 0 -- -- 85
2018-05-01 07:00:00 4.8 11 Sudoeste 18 Sudoeste 0 -- -- 87
2018-05-01 06:00:00 4.7 15 Sudoeste 20 Sudoeste 0 -- -- 87
2018-05-01 05:00:00 5.6 16 Sudoeste 20 Sudoeste 0 -- -- 87
2018-05-01 04:00:00 5.2 15 Sudoeste 22 Sudoeste 0 -- -- 87
2018-05-01 03:00:00 5.7 14 Sudoeste 18 Sudoeste 0 -- -- 88
2018-05-01 02:00:00 5.5 13 Sudoeste 17 Sudoeste 0 -- -- 87
2018-05-01 01:00:00 8.9 8 Noroeste 22 Noroeste 0 -- -- 73
2018-05-01 00:00:00 9.1 12 Noroeste 24 Norte 0 -- -- 69
2018-04-30 23:00:00 9.3 15 Noroeste 27 Noroeste 0 -- -- 72
2018-04-30 22:00:00 9.2 9 Noroeste 25 Noroeste 0 -- -- 74
2018-04-30 21:00:00 9.4 15 Noroeste 34 Norte 0 -- -- 75
2018-04-30 20:00:00 8.8 12 Noroeste 39 Noroeste 0 -- -- 81
2018-04-30 19:00:00 8.7 11 Noroeste 25 Noroeste 0 -- -- 76
2018-04-30 18:00:00 8.6 14 Noroeste 30 Nordeste 0 -- -- 76
2018-04-30 17:00:00 9.6 8 Noroeste 26 Norte 0 -- -- 74
2018-04-30 16:00:00 9.5 0 Calma 24 Norte 0 -- -- 78
2018-04-30 15:00:00 8.6 3 Sudeste 28 Noroeste 2.5 -- -- 82
2018-04-30 14:00:00 8 12 Oeste 31 Oeste 1.5 -- -- 84
2018-04-30 13:00:00 8.1 21 Oeste 36 Oeste 0.2 -- -- 87
2018-04-30 12:00:00 7.9 22 Oeste 41 Oeste 0.4 -- -- 91
2018-04-30 11:00:00 6.7 20 Oeste 44 Oeste 1.4 -- -- 92
2018-04-30 10:00:00 6.8 21 Oeste 48 Oeste 0.2 -- -- 91
2018-04-30 09:00:00 7.2 26 Oeste 41 Oeste 0 -- -- 84
2018-04-30 08:00:00 6.3 20 Sudoeste 35 Oeste 0 -- -- 87
2018-04-30 07:00:00 6.5 19 Sudoeste 35 Oeste 0.1 -- -- 87
2018-04-30 06:00:00 6.7 18 Oeste 32 Oeste 0 -- -- 84
2018-04-30 05:00:00 6.3 18 Oeste 35 Oeste 0 -- -- 83
2018-04-30 04:00:00 6.2 17 Sudoeste 35 Oeste 0.2 -- -- 86
2018-04-30 03:00:00 6.6 19 Oeste 34 Oeste 0.3 -- -- 84
2018-04-30 02:00:00 7.2 10 Noroeste 34 Noroeste 0.6 -- -- 91
2018-04-30 01:00:00 7.1 19 Noroeste 34 Noroeste 1.1 -- -- 91
2018-04-30 00:00:00 7.1 18 Noroeste 39 Noroeste 0.8 -- -- 91
2018-04-29 23:00:00 7.1 19 Noroeste 35 Noroeste 0.6 -- -- 90
2018-04-29 22:00:00 7.2 12 Noroeste 44 Oeste 0.4 -- -- 90
2018-04-29 21:00:00 7 21 Oeste 41 Noroeste 0 -- -- 90
2018-04-29 20:00:00 6.4 20 Sudoeste 37 Oeste 0.3 -- -- 91
2018-04-29 19:00:00 6.9 21 Sudoeste 31 Sudoeste 0.7 -- -- 91
2018-04-29 18:00:00 7 10 Sudoeste 39 Sudoeste 3.5 -- -- 92
2018-04-29 17:00:00 9.5 12 Oeste 22 Sudoeste 0 -- -- 84
2018-04-29 16:00:00 10.1 9 Noroeste 18 Noroeste 0 -- -- 82
2018-04-29 15:00:00 10.1 6 Noroeste 18 Noroeste 0 -- -- 82
2018-04-29 14:00:00 10.3 5 Noroeste 15 Noroeste 0 -- -- 82
2018-04-29 13:00:00 8.6 3 Noroeste 13 Norte 0 -- -- 83
2018-04-29 12:00:00 10.2 4 Oeste 13 Oeste 0 -- -- 84
2018-04-29 11:00:00 9.4 5 Noroeste 8 Noroeste 0 -- -- 81
2018-04-29 10:00:00 8.8 5 Sudoeste 14 Sudoeste 0 -- -- 84
2018-04-29 09:00:00 6.5 10 Sudoeste 13 Sudoeste 0 -- -- 90
2018-04-29 08:00:00 5.4 7 Sudoeste 11 Sudoeste 0 -- -- 90
2018-04-29 07:00:00 5.5 5 Sur 10 Sudoeste 0 -- -- 90
2018-04-29 06:00:00 6.2 3 Sur 9 Sur 0 -- -- 91
2018-04-29 05:00:00 6.9 0 Calma 9 Sudeste 0 -- -- 90
2018-04-29 04:00:00 6.9 5 Sudeste 8 Sudeste 0 -- -- 90
2018-04-29 03:00:00 6.7 5 Sur 13 Sudeste 0 -- -- 88
2018-04-29 02:00:00 7.2 0 Calma 10 Sudeste 0 -- -- 91
2018-04-29 01:00:00 7.7 8 Sudeste 12 Sudeste 0 -- -- 91
2018-04-29 00:00:00 8.2 8 Sudeste 18 Sudeste 0 -- -- 91
2018-04-28 23:00:00 7.7 11 Este 21 Este 0 -- -- 90
2018-04-28 22:00:00 7.9 14 Este 22 Este 0 -- -- 90
2018-04-28 21:00:00 8.1 15 Este 24 Este 0 -- -- 90
2018-04-28 20:00:00 8.3 15 Este 30 Este 0 -- -- 90
2018-04-28 19:00:00 8.6 15 Este 25 Este 0 -- -- 90
2018-04-28 18:00:00 8.5 15 Sudeste 32 Sudeste 0 -- -- 88
2018-04-28 17:00:00 9.2 8 Sudeste 23 Sudeste 0.1 -- -- 87
2018-04-28 16:00:00 9.3 12 Este 23 Este 0 -- -- 82
2018-04-28 15:00:00 10.1 13 Este 21 Este 0 -- -- 84
2018-04-28 14:00:00 9.4 9 Este 24 Este 0.1 -- -- 91
2018-04-28 13:00:00 9 6 Este 21 Este 0 -- -- 84
2018-04-28 12:00:00 9.2 0 Calma 10 Sudeste 0.1 -- -- 86
2018-04-28 11:00:00 9 5 Sudeste 14 Sudeste 0 -- -- 86
2018-04-28 10:00:00 8.8 3 Sudeste 9 Este 0 -- -- 86
2018-04-28 09:00:00 8.4 0 Calma 8 Sudoeste 0 -- -- 87
2018-04-28 08:00:00 7.9 4 Noroeste 13 Noroeste 0 -- -- 87
2018-04-28 07:00:00 7.4 8 Sudoeste 13 Sudoeste 0 -- -- 90
2018-04-28 06:00:00 7.4 7 Sudoeste 13 Sudoeste 0 -- -- 88
2018-04-28 05:00:00 7.7 4 Sur 15 Sudeste 0 -- -- 90
2018-04-28 04:00:00 7.6 7 Sudeste 19 Sudeste 0 -- -- 90
2018-04-28 03:00:00 8.1 12 Sudeste 17 Sudeste 0 -- -- 90
2018-04-28 02:00:00 8.2 3 Sudeste 12 Este 0 -- -- 90
2018-04-28 01:00:00 8.8 0 Calma 9 Sur 0 -- -- 85
2018-04-28 00:00:00 9.2 3 Sudoeste 10 Norte 0 -- -- 76
2018-04-27 23:00:00 9.7 6 Noroeste 20 Oeste 0 -- -- 75
2018-04-27 22:00:00 9.4 14 Noroeste 30 Noroeste 0 -- -- 79
2018-04-27 21:00:00 10 14 Noroeste 33 Noroeste 0 -- -- 76
2018-04-27 20:00:00 10.7 17 Noroeste 36 Noroeste 0 -- -- 72
2018-04-27 19:00:00 11.2 22 Noroeste 47 Noroeste 0 -- -- 73
2018-04-27 18:00:00 10.7 30 Noroeste 53 Noroeste 0 -- -- 74
2018-04-27 17:00:00 10.6 30 Noroeste 51 Noroeste 0 -- -- 76
2018-04-27 16:00:00 11.3 29 Noroeste 56 Noroeste 0 -- -- 72
2018-04-27 15:00:00 10.6 32 Noroeste 58 Noroeste 0 -- -- 73
2018-04-27 14:00:00 10.5 25 Noroeste 54 Noroeste -- -- -- 74
2018-04-27 13:00:00 10.1 23 Noroeste 57 Noroeste -- -- -- 75
2018-04-27 12:00:00 10.6 23 Oeste 60 Oeste -- -- -- 79
2018-04-27 11:00:00 10.2 19 Noroeste 62 Noroeste -- -- -- 79
2018-04-27 10:00:00 10.3 21 Oeste 53 Oeste -- -- -- 79
2018-04-27 09:00:00 9.9 24 Noroeste 60 Oeste 0 -- -- 82
2018-04-27 08:00:00 10 22 Noroeste 55 Oeste 0 -- -- 87
2018-04-27 07:00:00 11.4 24 Oeste 53 Oeste 0 -- -- 79
2018-04-27 06:00:00 11.5 23 Oeste 46 Oeste 0 -- -- 75
2018-04-27 05:00:00 10.6 23 Oeste 37 Oeste 0 -- -- 90
2018-04-27 04:00:00 9.9 23 Oeste 31 Oeste 0 -- -- 91
2018-04-27 03:00:00 8.8 16 Sudoeste 21 Sudoeste 0 -- -- 91
2018-04-27 02:00:00 9.3 10 Sudoeste 14 Sur 0 -- -- 88
2018-04-27 01:00:00 9.5 4 Sur 16 Sudeste 0 -- -- 88
2018-04-27 00:00:00 9.7 15 Sudeste 22 Sudeste 0 -- -- 88
2018-04-26 23:00:00 10.1 15 Este 26 Este 0 -- -- 88
2018-04-26 22:00:00 10.2 18 Este 31 Este 0 -- -- 87
2018-04-26 21:00:00 10.3 21 Este 32 Este 0 -- -- 86
2018-04-26 20:00:00 11.1 21 Este 34 Este 0 -- -- 82
2018-04-26 19:00:00 11.7 19 Este 35 Este 0 -- -- 82
2018-04-26 18:00:00 12.4 21 Este 33 Este 0 -- -- 83
2018-04-26 17:00:00 12.4 21 Este 33 Este 0 -- -- 81
2018-04-26 16:00:00 13.4 21 Este 32 Este 0 -- -- 79
2018-04-26 15:00:00 13.4 20 Este 30 Este 0 -- -- 79
2018-04-26 14:00:00 11.9 19 Este 28 Este 0 -- -- 82
2018-04-26 13:00:00 11.4 15 Este 26 Este 0 -- -- 82
2018-04-26 12:00:00 10.9 14 Sudeste 34 Este 0 -- -- 83
2018-04-26 11:00:00 10.4 12 Este 26 Sudeste 0 -- -- 84
2018-04-26 10:00:00 10.2 14 Este 23 Este 0 -- -- 86
2018-04-26 09:00:00 10.2 10 Sudeste 21 Sudeste 0 -- -- 86
2018-04-26 08:00:00 9.9 8 Sudeste 19 Este 0 -- -- 86
2018-04-26 07:00:00 9.8 10 Sudeste 17 Este 0 -- -- 86
2018-04-26 06:00:00 9.5 10 Este 16 Este 0 -- -- 87
2018-04-26 05:00:00 8.6 6 Sudeste 10 Este 0 -- -- 87
2018-04-26 04:00:00 9.6 6 Este 13 Este 0 -- -- 84
2018-04-26 03:00:00 10 5 Sudeste 14 Este 0 -- -- 83
2018-04-26 02:00:00 10.1 4 Este 15 Sudeste 0 -- -- 83
2018-04-26 01:00:00 10 5 Sudeste 13 Sudeste 0 -- -- 84
2018-04-26 00:00:00 10.2 3 Sur 9 Sudeste 0 -- -- 84
2018-04-25 23:00:00 10 3 Sur 8 Sur 0 -- -- 84
2018-04-25 22:00:00 10.2 2 Sur 8 Sudeste 0 -- -- 84
2018-04-25 21:00:00 10 3 Sudeste 11 Oeste 0 -- -- 83
2018-04-25 20:00:00 11.2 3 Noroeste 13 Noroeste 0 -- -- 81
2018-04-25 19:00:00 11.2 6 Noroeste 25 Norte 0 -- -- 83
2018-04-25 18:00:00 11 9 Noroeste 22 Norte 0 -- -- 84
2018-04-25 17:00:00 11.5 0 Calma 19 Sudeste 0 -- -- 84
2018-04-25 16:00:00 11.8 6 Sudeste 21 Oeste 0 -- -- 84
2018-04-25 15:00:00 11.6 6 Sudeste 30 Oeste 0 -- -- 91
2018-04-25 14:00:00 11.1 16 Noroeste 32 Noroeste 0 -- -- 91
2018-04-25 13:00:00 12.2 10 Noroeste 25 Noroeste 0 -- -- 86
2018-04-25 12:00:00 12.7 9 Oeste 20 Oeste 0 -- -- 86
2018-04-25 11:00:00 12.1 11 Oeste 16 Oeste 0 -- -- 87
2018-04-25 10:00:00 11.6 6 Oeste 12 Oeste 0 -- -- 88
2018-04-25 09:00:00 11.2 7 Noroeste 19 Noroeste 0 -- -- 90
2018-04-25 08:00:00 10.6 12 Noroeste 21 Noroeste 0 -- -- 91
2018-04-25 07:00:00 10.9 9 Noroeste 15 Noroeste 0 -- -- 91
2018-04-25 06:00:00 10.8 5 Noroeste 26 Noroeste 0 -- -- 91
2018-04-25 05:00:00 11 18 Noroeste 24 Norte 0 -- -- 93
2018-04-25 04:00:00 11.4 9 Noroeste 17 Noroeste 0 -- -- 93
2018-04-25 03:00:00 11.3 4 Oeste 13 Noroeste 0 -- -- 94
2018-04-25 02:00:00 11.3 0 Calma 2 Oeste 0 -- -- 93
2018-04-25 01:00:00 11.4 0 Calma 6 Sudeste 0 -- -- 93
2018-04-25 00:00:00 11.5 0 Calma 7 Sudeste 0 -- -- 93
2018-04-24 23:00:00 11.4 3 Este 9 Este 0 -- -- 94
2018-04-24 22:00:00 11.5 6 Este 13 Este 0 -- -- 94
2018-04-24 21:00:00 11.4 9 Este 14 Este 0 -- -- 93
2018-04-24 20:00:00 11.9 8 Este 14 Sudeste 0 -- -- 94
2018-04-24 19:00:00 11.7 4 Este 18 Nordeste 0 -- -- 94
2018-04-24 18:00:00 12 7 Este 21 Sudeste 0 -- -- 94
2018-04-24 17:00:00 12.4 8 Este 18 Este 0 -- -- 94
2018-04-24 16:00:00 12.5 11 Sudeste 24 Este 0 -- -- 94
2018-04-24 15:00:00 12.8 12 Este 26 Este 0 -- -- 93
2018-04-24 14:00:00 12.7 17 Este 27 Este 0 -- -- 93
2018-04-24 13:00:00 12.7 21 Este 29 Este 0 -- -- 93
2018-04-24 12:00:00 12.4 18 Este 29 Este 0 -- -- 93
2018-04-24 11:00:00 12.3 15 Este 28 Este 0 -- -- 93
2018-04-24 10:00:00 11.9 16 Este 31 Este 0 -- -- 92
2018-04-24 09:00:00 12.1 17 Este 38 Este 0 -- -- 92
2018-04-24 08:00:00 12 19 Este 30 Este 0 -- -- 92
2018-04-24 07:00:00 12 14 Este 30 Este 0 -- -- 92
2018-04-24 06:00:00 11.9 16 Este 33 Este 0 -- -- 92
2018-04-24 05:00:00 11.8 16 Este 31 Este 0 -- -- 92
2018-04-24 04:00:00 12 16 Este 32 Este 0 -- -- 92
2018-04-24 03:00:00 12 17 Este 31 Este 0 -- -- 92
2018-04-24 02:00:00 12.1 18 Este 31 Este 0 -- -- 92
2018-04-24 01:00:00 12.1 19 Este 31 Este 0 -- -- 92
2018-04-24 00:00:00 11.9 17 Este 27 Este 0 -- -- 92